[[{"header":{"parameterUnit":"m.s-1","parameterCategory":1,"la1":30.2991,"la2":30.254,"lo1":-89.0895,"lo2":-89.0444,"dy":0.0017,"dx":0.0017,"nx":28,"ny":28,"refTime":"2025-03-21T09:00:00:Z","depth":0,"parameterNumber":2,"parameterNumberName":"U-component_of_WINDS"},"data":[0,0,0,0,0,0,0,0,0,0,0,0,0,0,0,0,0,0,0,0,0,0,0,0,0,0,0,0,0,0,0,0,0,0,0,0,0,0,0,0,0,0,0,0,0,0,0,0,0,0,0,0,0,0,0,0,0,0,2.147,2.1472,0,2.1697,2.17,2.1702,2.171,2.1708,2.1705,2.1702,2.1939,2.1948,2.1956,0,0,0,0,0,0,0,0,0,0,0,0,0,2.1045,2.1052,2.147,2.1473,2.1475,2.1697,2.17,2.1703,2.1711,2.1708,2.1704,2.1701,2.1936,2.1946,2.1957,0,0,0,0,0,0,0,0,0,0,0,0,0,2.1246,2.1055,2.1469,2.1506,2.1511,2.1696,2.17,2.1704,2.1712,2.1708,2.1703,2.17,2.1933,2.1945,2.1959,2.2123,0,0,2.1999,2.2005,0,0,0,0,0,0,0,0,2.1235,2.1262,2.1498,2.1504,2.151,2.1671,2.1637,2.1845,2.1713,2.1636,2.1702,2.1697,2.1853,2.1873,2.1925,2.2134,2.2144,2.2,2.2008,2.2014,2.2018,0,0,0,0,0,0,0,2.1221,2.1252,2.156,2.1501,2.1509,2.1512,2.1536,2.1676,2.1765,2.1642,2.1643,2.167,2.1856,2.1912,2.193,2.2148,2.2,2.2012,2.202,2.2025,2.2502,2.2507,0,0,0,0,0,0,2.1199,2.1241,2.1553,2.1567,2.1359,2.1523,2.155,2.1624,2.1764,2.1781,2.1673,2.1669,2.1891,2.1915,2.1939,2.2139,2.2014,2.2027,2.2034,2.2498,2.2503,2.2509,0,0,0,0,0,0,2.119,2.1227,2.1543,2.1404,2.1445,2.1534,2.1618,2.163,2.1686,2.1787,2.1803,2.1714,2.1889,2.192,2.2077,2.2148,2.2033,2.2045,2.2492,2.25,2.2506,2.2543,0,0,0,0,0,0,2.1178,2.1224,2.1287,2.1405,2.1452,2.1677,2.1622,2.1638,2.1709,2.1706,2.1829,2.1846,2.1888,2.2057,2.209,2.2164,2.2055,2.2486,2.2495,2.2504,2.2535,2.255,2.2562,0,0,0,0,0,2.1163,2.1289,2.129,2.1328,2.1532,2.1681,2.1708,2.1753,2.1714,2.1779,2.1843,2.1842,2.2135,2.2073,2.211,2.2189,2.2482,2.2493,2.2503,2.2529,2.2547,2.2562,0,0,0,0,0,0,2.1178,2.1305,2.1308,2.1476,2.1567,2.1682,2.1764,2.177,2.1876,2.1869,2.1921,2.1949,2.2104,2.2163,2.2092,2.2355,2.2304,2.2323,2.2311,2.2329,2.2342,2.2324,2.2066,0,0,0,0,0,2.1201,2.131,2.1416,2.1554,2.16,2.1674,2.1741,2.1767,2.1865,2.1904,2.198,2.2075,2.2188,2.2262,2.2372,2.2544,2.2571,2.2617,2.263,2.2641,2.2656,2.275,2.2771,2.2543,2.2543,2.2543,0,0,2.125,2.1333,2.1399,2.1559,2.1633,2.1745,2.1707,2.1828,2.1911,2.1923,2.2074,2.2133,2.2243,2.2408,2.2484,2.2461,2.2725,2.2654,2.2662,2.2672,2.2763,2.2784,2.2804,2.2551,2.2549,2.2548,0,0,2.1395,2.1469,2.1592,2.1666,2.1778,2.1826,2.1856,2.1969,2.2008,2.2161,2.2171,2.2272,2.2467,2.2544,2.2609,2.2782,2.2785,2.2817,2.2887,2.2978,2.2996,2.3012,2.3073,2.3094,2.2832,2.2832,2.2832,0,2.1442,2.161,2.1654,2.1775,2.1845,2.1858,2.1983,2.2053,2.2196,2.2244,2.2216,2.2459,2.2535,2.2716,2.2758,2.2811,2.2846,2.2803,2.299,2.3006,2.3022,2.308,2.3103,2.2835,2.2835,2.2834,2.2834,0,2.1661,2.1778,2.1864,2.1999,2.2079,2.2201,2.2263,2.2339,2.2359,2.241,2.2565,2.2656,2.2783,2.2829,2.285,2.3014,2.2996,2.2978,2.2928,2.3046,2.3102,2.3124,2.284,2.2838,2.2837,2.2837,0,0,2.1823,2.198,2.201,2.2071,2.2195,2.2286,2.2409,2.2532,2.2595,2.2693,2.2797,2.296,2.2944,2.3018,2.3048,2.3128,2.3257,2.3101,2.3104,2.3125,2.3442,2.3453,2.3478,2.326,2.3264,2.3268,2.3432,0,2.1981,2.2197,2.224,2.2428,2.2535,2.2549,2.2656,2.2744,2.2795,2.2894,2.2952,2.3066,2.3037,2.3081,2.3161,2.3225,2.3321,2.3214,2.3357,2.3361,2.3327,2.3507,2.352,2.3671,2.3454,2.3458,2.3461,0,2.2194,2.2295,2.2493,2.26,2.2647,2.2742,2.2858,2.2953,2.3052,2.3084,2.3165,2.3186,2.3314,2.3257,2.3434,2.3359,2.3421,2.3461,2.3468,2.3482,2.3417,2.3525,2.372,2.3742,2.3496,2.3493,2.349,0,2.2291,2.2476,2.2618,2.267,2.2799,2.2865,2.2923,2.3018,2.3089,2.319,2.3237,2.3353,2.3416,2.3505,2.3557,2.3511,2.3729,2.3677,2.3759,2.3757,2.3803,2.3799,2.4009,2.3845,2.3844,2.3844,2.3843,0,2.2462,2.2582,2.2662,2.275,2.2885,2.2933,2.3065,2.3122,2.3207,2.3305,2.3326,2.3418,2.3481,2.3582,2.3624,2.3763,2.3792,2.3821,2.383,2.3818,2.3814,2.3858,2.3849,2.385,2.3849,2.3847,2.3846,0,2.2592,2.2651,2.2806,2.2915,2.2945,2.304,2.3134,2.3219,2.327,2.3394,2.3427,2.3507,2.3627,2.3687,2.3838,2.3865,2.4022,2.4026,2.3988,2.3991,2.4068,2.4059,2.4312,2.4347,2.4161,2.4163,2.4164,0,2.2697,2.2789,2.2908,2.2974,2.3032,2.314,2.3212,2.3263,2.3337,2.3456,2.3527,2.3648,2.3747,2.3938,2.4011,2.4126,2.4131,2.4212,2.4149,2.4133,2.4131,2.4124,2.4133,2.4223,2.4225,2.4226,2.4227,0,2.2876,2.29,2.3002,2.3114,2.3198,2.3289,2.3379,2.3433,2.3499,2.3581,2.3703,2.378,2.3932,2.4051,2.4171,2.4231,2.424,2.4247,2.4271,2.4259,2.4233,2.4247,2.4017,2.424,2.4239,2.4238,2.4237,2.4237,2.2996,2.3078,2.3173,2.3286,2.3358,2.3441,2.3526,2.3586,2.3689,2.3815,2.384,2.3969,2.4065,2.4227,2.429,2.4392,2.4375,2.4411,2.442,2.4428,2.443,2.4217,2.4415,2.4414,2.4414,2.4414,2.4414,0,2.3175,2.3236,2.3339,2.3463,2.3551,2.3551,2.365,2.3724,2.3837,2.3925,2.4022,2.4161,2.4277,2.4358,2.4475,2.4541,2.4548,2.457,2.4566,2.4579,2.444,2.4406,2.4562,2.4562,2.4562,2.4562,2.4562,2.4562,2.3278,2.3416,2.3451,2.3625,2.3687,2.3812,2.3868,2.3945,2.4015,2.4169,2.4265,2.4316,2.4402,2.4525,2.4631,2.4652,2.4694,2.4715,2.4736,2.4605,2.4589,2.4574,2.4542,2.4724,2.4725,2.4866,2.4867,2.4868]},{"header":{"parameterUnit":"m.s-1","parameterCategory":1,"la1":30.2991,"la2":30.254,"lo1":-89.0895,"lo2":-89.0444,"dy":0.0017,"dx":0.0017,"nx":28,"ny":28,"refTime":"2025-03-21T09:00:00:Z","depth":0,"parameterNumber":3,"parameterNumberName":"V-component_of_WINDS"},"data":[0,0,0,0,0,0,0,0,0,0,0,0,0,0,0,0,0,0,0,0,0,0,0,0,0,0,0,0,0,0,0,0,0,0,0,0,0,0,0,0,0,0,0,0,0,0,0,0,0,0,0,0,0,0,0,0,0,0,-0.3967,-0.3967,0,-0.3948,-0.3947,-0.3947,-0.3959,-0.396,-0.3961,-0.3961,-0.3939,-0.3938,-0.3936,0,0,0,0,0,0,0,0,0,0,0,0,0,-0.4014,-0.4013,-0.3967,-0.3967,-0.3967,-0.3948,-0.3947,-0.3947,-0.3959,-0.396,-0.3961,-0.3961,-0.3939,-0.3938,-0.3936,0,0,0,0,0,0,0,0,0,0,0,0,0,-0.3994,-0.4013,-0.3967,-0.3971,-0.3971,-0.3948,-0.3947,-0.3947,-0.3959,-0.396,-0.3961,-0.3962,-0.3939,-0.3938,-0.3936,-0.3908,0,0,-0.3931,-0.393,0,0,0,0,0,0,0,0,-0.3995,-0.3992,-0.397,-0.397,-0.397,-0.3957,-0.3956,-0.3934,-0.3959,-0.3963,-0.3961,-0.3962,-0.3944,-0.3942,-0.3936,-0.3907,-0.3906,-0.3931,-0.393,-0.3929,-0.3929,0,0,0,0,0,0,0,-0.3996,-0.3993,-0.3959,-0.397,-0.397,-0.3973,-0.3971,-0.3952,-0.3949,-0.3963,-0.3964,-0.3962,-0.3944,-0.3938,-0.3936,-0.3906,-0.3931,-0.3929,-0.3928,-0.3928,-0.3854,-0.3854,0,0,0,0,0,0,-0.3998,-0.3994,-0.396,-0.3959,-0.3985,-0.3971,-0.3969,-0.396,-0.3949,-0.3948,-0.3961,-0.3962,-0.394,-0.3938,-0.3935,-0.3902,-0.3929,-0.3927,-0.3926,-0.3855,-0.3854,-0.3853,0,0,0,0,0,0,-0.3999,-0.3994,-0.3961,-0.3977,-0.3973,-0.3969,-0.3959,-0.3959,-0.3953,-0.3948,-0.3947,-0.3955,-0.3941,-0.3937,-0.3915,-0.3902,-0.3927,-0.3925,-0.3856,-0.3855,-0.3854,-0.3836,0,0,0,0,0,0,-0.4,-0.3995,-0.3984,-0.3976,-0.3972,-0.3941,-0.3959,-0.3958,-0.3951,-0.3952,-0.3942,-0.3941,-0.3941,-0.3918,-0.3914,-0.39,-0.3924,-0.3858,-0.3856,-0.3854,-0.3838,-0.3834,-0.3831,0,0,0,0,0,-0.4001,-0.3979,-0.3983,-0.3979,-0.3958,-0.3941,-0.3938,-0.3939,-0.3949,-0.3939,-0.3935,-0.3941,-0.3904,-0.3915,-0.3911,-0.3896,-0.3858,-0.3856,-0.3854,-0.3839,-0.3835,-0.3831,0,0,0,0,0,0,-0.3983,-0.3978,-0.3983,-0.3957,-0.395,-0.3943,-0.3929,-0.3934,-0.3923,-0.3925,-0.3927,-0.3924,-0.3901,-0.3897,-0.3909,-0.3869,-0.3883,-0.388,-0.3873,-0.3869,-0.3865,-0.3866,-0.3922,0,0,0,0,0,-0.3977,-0.3964,-0.3959,-0.3937,-0.3933,-0.3932,-0.3924,-0.3926,-0.3918,-0.3914,-0.3909,-0.39,-0.3887,-0.3878,-0.3865,-0.3838,-0.3836,-0.3826,-0.3822,-0.382,-0.3816,-0.3803,-0.3798,-0.3846,-0.3847,-0.3847,0,0,-0.3962,-0.3958,-0.3949,-0.3933,-0.3928,-0.3913,-0.3929,-0.3913,-0.3902,-0.3912,-0.3891,-0.3887,-0.3877,-0.3853,-0.3842,-0.3848,-0.3803,-0.3817,-0.3815,-0.3813,-0.38,-0.3795,-0.3791,-0.3845,-0.3845,-0.3846,0,0,-0.3929,-0.3924,-0.3905,-0.39,-0.3892,-0.3891,-0.3887,-0.388,-0.3878,-0.3858,-0.3865,-0.3853,-0.3829,-0.3822,-0.3815,-0.3782,-0.3787,-0.3778,-0.376,-0.3746,-0.3743,-0.3739,-0.3727,-0.3723,-0.3775,-0.3775,-0.3775,0,-0.3911,-0.3891,-0.3895,-0.3879,-0.3872,-0.3882,-0.3863,-0.3857,-0.3845,-0.384,-0.3848,-0.382,-0.3814,-0.3788,-0.3781,-0.3775,-0.377,-0.3778,-0.3743,-0.374,-0.3736,-0.3725,-0.3721,-0.3774,-0.3774,-0.3774,-0.3774,0,-0.387,-0.3856,-0.3842,-0.3831,-0.3823,-0.3805,-0.3807,-0.3798,-0.3802,-0.3801,-0.378,-0.3774,-0.3761,-0.3755,-0.3758,-0.373,-0.3735,-0.3743,-0.3756,-0.3731,-0.372,-0.3716,-0.3772,-0.3773,-0.3773,-0.3773,0,0,-0.3821,-0.3816,-0.381,-0.3806,-0.3799,-0.3788,-0.3772,-0.376,-0.3752,-0.3744,-0.373,-0.3712,-0.372,-0.3712,-0.3715,-0.3703,-0.3677,-0.3713,-0.3712,-0.3706,-0.3647,-0.3641,-0.3636,-0.3682,-0.3681,-0.368,-0.3648,0,-0.3787,-0.3759,-0.3764,-0.3737,-0.3724,-0.3735,-0.3721,-0.3715,-0.3714,-0.3703,-0.3702,-0.3689,-0.37,-0.3696,-0.3685,-0.3683,-0.3665,-0.3685,-0.3668,-0.3668,-0.3669,-0.363,-0.3623,-0.3592,-0.3644,-0.3643,-0.3643,0,-0.3743,-0.3735,-0.3707,-0.3703,-0.3698,-0.3685,-0.3676,-0.3665,-0.3659,-0.366,-0.3653,-0.3658,-0.3642,-0.3657,-0.3635,-0.3648,-0.3642,-0.364,-0.3639,-0.3636,-0.3653,-0.3626,-0.3583,-0.3578,-0.3636,-0.3637,-0.3637,0,-0.371,-0.3692,-0.3674,-0.367,-0.3665,-0.3656,-0.3654,-0.3649,-0.3642,-0.3634,-0.363,-0.3619,-0.3613,-0.3605,-0.3607,-0.3618,-0.3585,-0.36,-0.3584,-0.3584,-0.3575,-0.3576,-0.353,-0.3573,-0.3573,-0.3573,-0.3573,0,-0.3671,-0.3653,-0.3659,-0.3647,-0.3629,-0.3635,-0.3615,-0.3614,-0.361,-0.3598,-0.3607,-0.3596,-0.36,-0.3589,-0.3591,-0.3572,-0.357,-0.3569,-0.357,-0.3568,-0.3568,-0.3563,-0.3565,-0.3572,-0.3572,-0.3572,-0.3572,0,-0.363,-0.3634,-0.3614,-0.3613,-0.3612,-0.3598,-0.3596,-0.3586,-0.3587,-0.3572,-0.3569,-0.357,-0.3558,-0.356,-0.3546,-0.3547,-0.3524,-0.3528,-0.3526,-0.3527,-0.3511,-0.3513,-0.346,-0.3453,-0.3501,-0.35,-0.35,0,-0.3604,-0.3591,-0.3589,-0.3583,-0.358,-0.3569,-0.3563,-0.3569,-0.3562,-0.3555,-0.3545,-0.3534,-0.3526,-0.3506,-0.3505,-0.3495,-0.3498,-0.348,-0.3496,-0.3495,-0.3497,-0.3498,-0.3496,-0.3476,-0.3476,-0.3475,-0.3475,0,-0.3558,-0.3561,-0.3552,-0.3544,-0.3537,-0.3531,-0.3525,-0.3519,-0.3525,-0.3517,-0.3505,-0.3499,-0.3486,-0.3475,-0.3466,-0.3463,-0.347,-0.3471,-0.3466,-0.3464,-0.3464,-0.3463,-0.3517,-0.3471,-0.3472,-0.3472,-0.3472,-0.3472,-0.3523,-0.3513,-0.351,-0.35,-0.3498,-0.3493,-0.3483,-0.3484,-0.3475,-0.3465,-0.347,-0.3456,-0.3452,-0.3441,-0.3438,-0.3428,-0.3434,-0.3428,-0.3426,-0.3424,-0.3422,-0.3466,-0.3426,-0.3426,-0.3426,-0.3426,-0.3426,0,-0.3477,-0.3477,-0.3468,-0.3461,-0.3454,-0.3463,-0.3458,-0.3451,-0.344,-0.3436,-0.3428,-0.3415,-0.3405,-0.3405,-0.3395,-0.3387,-0.339,-0.3385,-0.3385,-0.3384,-0.3417,-0.3422,-0.3382,-0.3382,-0.3382,-0.3382,-0.3382,-0.3382,-0.3452,-0.3435,-0.3438,-0.342,-0.342,-0.3408,-0.3404,-0.34,-0.3398,-0.3383,-0.3376,-0.3376,-0.3374,-0.3365,-0.3356,-0.3356,-0.3352,-0.3345,-0.3347,-0.3377,-0.3382,-0.3386,-0.339,-0.3345,-0.3344,-0.3314,-0.3314,-0.3314]}]]